Belmar-Farmingdale, NJ

3:40 AM EST on February 25, 2018 (GMT -0500)
Allaire

Weather History for KBLM - March, 2011

Change the Weather History Date:

Tuesday, March 8, 2011

  Actual Average Record
Temperature  
Mean Temperature - -  
Max Temperature - 43 °F 71 °F (2012)
Min Temperature - 29 °F 10 °F (2007)
Moisture  
Dew Point -    
Average Humidity    
Maximum Humidity    
Minimum Humidity    
Precipitation  
Precipitation 0.00 in - - ()
Sea Level Pressure  
Sea Level Pressure 30.48 in    
Wind  
Wind Speed 7 mph (NNE)    
Max Wind Speed 12 mph    
Max Gust Speed -    
Visibility 10 miles    
Events      
Averages and records for this station are not official NWS values.
T = Trace of Precipitation, MM = Missing Value Source: NWS Daily Summary

Daily Weather History Graph

Daily Weather History Graph

Search for Another Location

Airport or City:

Trip Planner

Search our weather history database for the weather conditions in past years. The results will help you decide how hot, cold, wet, or windy it might be!

Date:

Astronomy

Mar. 08, 2011 Rise Set
Actual Time 6:19 AM EST 5:55 PM EST
Civil Twilight 5:52 AM EST 6:22 PM EST
Nautical Twilight 5:21 AM EST 6:54 PM EST
Astronomical Twilight 4:49 AM EST 7:25 PM EST
Moon 7:37 AM EST (3/8) 9:52 PM EST (3/8)
Length of Visible Light 12h 30m
Length of Day
11h 35m
Waxing Crescent, 13% of the Moon is Illuminated
Mar 8
Waxing Crescent
Mar 12
First Quarter
Mar 19
Full
Mar 26
Last Quarter
Apr 3
New

Hourly Weather History & Observations

Time (EST) Temp. Dew Point Humidity Pressure Visibility Wind Dir Wind Speed Gust Speed Precip Events Conditions
12:15 AM - - N/A% 30.36 in 10.0 mi WNW 3.5 mph - N/A   Clear
12:35 AM - - N/A% 30.37 in 10.0 mi WNW 5.8 mph - N/A   Clear
12:55 AM - - N/A% 30.37 in 10.0 mi WNW 8.1 mph - N/A   Clear
1:15 AM - - N/A% 30.37 in 10.0 mi NW 3.5 mph - N/A   Clear
1:35 AM - - N/A% 30.37 in 10.0 mi NW 6.9 mph - N/A   Clear
1:55 AM - - N/A% 30.37 in 10.0 mi NW 5.8 mph - N/A   Clear
2:15 AM - - N/A% 30.37 in 10.0 mi NNW 3.5 mph - N/A   Clear
2:35 AM - - N/A% 30.37 in 10.0 mi NW 5.8 mph - N/A   Clear
2:55 AM - - N/A% 30.37 in 10.0 mi NW 4.6 mph - N/A   Clear
3:15 AM - - N/A% 30.37 in 10.0 mi NW 8.1 mph - N/A   Clear
3:35 AM - - N/A% 30.38 in 10.0 mi NW 4.6 mph - N/A   Clear
3:55 AM - - N/A% 30.39 in 10.0 mi NNW 6.9 mph - N/A   Clear
4:15 AM - - N/A% 30.40 in 10.0 mi NNW 8.1 mph - N/A   Clear
4:35 AM - - N/A% 30.42 in 10.0 mi NW 6.9 mph - N/A   Clear
4:55 AM - - N/A% 30.43 in 10.0 mi NW 8.1 mph - N/A   Clear
5:15 AM - - N/A% 30.43 in 10.0 mi NNW 4.6 mph - N/A   Clear
5:35 AM - - N/A% 30.43 in 10.0 mi North 5.8 mph - N/A   Clear
5:55 AM - - N/A% 30.44 in 10.0 mi North 6.9 mph - N/A   Clear
6:15 AM - - N/A% 30.46 in 10.0 mi NW 3.5 mph - N/A   Clear
6:35 AM - - N/A% 30.46 in 10.0 mi North 5.8 mph - N/A   Clear
6:55 AM - - N/A% 30.48 in 10.0 mi NNW 3.5 mph - N/A   Clear
7:15 AM - - N/A% 30.50 in 10.0 mi NW 4.6 mph - N/A   Clear
7:35 AM - - N/A% 30.51 in 10.0 mi NNW 5.8 mph - N/A   Clear
7:55 AM - - N/A% 30.51 in 10.0 mi North 8.1 mph - N/A   Clear
8:15 AM - - N/A% 30.51 in 10.0 mi NNE 9.2 mph - N/A   Clear
8:35 AM - - N/A% 30.51 in 10.0 mi North 10.4 mph - N/A   Clear
8:55 AM - - N/A% 30.52 in 10.0 mi NNE 11.5 mph - N/A   Clear
9:15 AM - - N/A% 30.53 in 10.0 mi North 9.2 mph - N/A   Clear
9:35 AM - - N/A% 30.53 in 10.0 mi NNE 10.4 mph - N/A   Clear
9:55 AM - - N/A% 30.53 in 10.0 mi NNE 8.1 mph - N/A   Clear
10:15 AM - - N/A% 30.52 in 10.0 mi NE 9.2 mph - N/A   Clear
10:35 AM - - N/A% 30.52 in 10.0 mi NE 10.4 mph - N/A   Clear
10:55 AM - - N/A% 30.52 in 10.0 mi NE 11.5 mph - N/A   Clear
11:15 AM - - N/A% 30.52 in 10.0 mi NNE 10.4 mph - N/A   Clear
11:35 AM - - N/A% 30.52 in 10.0 mi NNE 9.2 mph - N/A   Clear
11:55 AM - - N/A% 30.53 in 10.0 mi NE 6.9 mph - N/A   Clear
12:15 PM - - N/A% 30.53 in 10.0 mi ENE 9.2 mph - N/A   Clear
12:35 PM - - N/A% 30.53 in 10.0 mi East 10.4 mph - N/A   Clear
12:55 PM - - N/A% 30.53 in 10.0 mi East 10.4 mph - N/A   Clear
1:15 PM - - N/A% 30.53 in 10.0 mi East 10.4 mph - N/A   Clear
1:35 PM - - N/A% 30.54 in 10.0 mi ENE 6.9 mph - N/A   Clear
1:55 PM - - N/A% 30.54 in 10.0 mi ESE 9.2 mph - N/A   Clear
2:15 PM - - N/A% 30.54 in 10.0 mi ESE 9.2 mph - N/A   Clear
2:55 PM - - N/A% 30.54 in 10.0 mi East 10.4 mph - N/A   Clear
3:15 PM - - N/A% 30.54 in 10.0 mi ESE 8.1 mph - N/A   Clear
3:35 PM - - N/A% 30.54 in 10.0 mi ESE 6.9 mph - N/A   Clear
3:55 PM - - N/A% 30.54 in 10.0 mi ESE 6.9 mph - N/A   Clear
4:15 PM - - N/A% 30.54 in 10.0 mi ESE 6.9 mph - N/A   Clear
4:35 PM - - N/A% 30.55 in 10.0 mi SE 5.8 mph - N/A   Clear
4:55 PM - - N/A% 30.55 in 10.0 mi SE 5.8 mph - N/A   Clear
5:15 PM - - N/A% 30.55 in 10.0 mi ESE 6.9 mph - N/A   Clear
5:35 PM - - N/A% 30.55 in 10.0 mi ESE 5.8 mph - N/A   Clear
5:55 PM - - N/A% 30.55 in 10.0 mi ESE 8.1 mph - N/A   Clear
6:15 PM - - N/A% 30.55 in 10.0 mi ESE 6.9 mph - N/A   Clear
6:35 PM - - N/A% 30.56 in 10.0 mi East 6.9 mph - N/A   Clear
6:55 PM - - N/A% 30.56 in 10.0 mi ESE 4.6 mph - N/A   Clear
7:15 PM - - N/A% 30.56 in 10.0 mi East 4.6 mph - N/A   Clear
7:35 PM - - N/A% 30.56 in 10.0 mi East 4.6 mph - N/A   Clear
7:55 PM - - N/A% 30.56 in 10.0 mi East 4.6 mph - N/A   Clear
8:15 PM - - N/A% 30.57 in 10.0 mi East 5.8 mph - N/A   Clear
8:35 PM - - N/A% 30.57 in 10.0 mi East 4.6 mph - N/A   Clear
8:55 PM - - N/A% 30.58 in 10.0 mi East 3.5 mph - N/A   Clear
9:15 PM - - N/A% 30.58 in 10.0 mi Calm Calm - N/A   Clear
9:35 PM - - N/A% 30.58 in 10.0 mi East 3.5 mph - N/A   Clear
9:55 PM - - N/A% 30.58 in 10.0 mi East 3.5 mph - N/A   Clear
10:15 PM - - N/A% 30.58 in 10.0 mi ENE 4.6 mph - N/A   Clear
10:35 PM - - N/A% 30.58 in 10.0 mi Calm Calm - N/A   Clear
10:55 PM - - N/A% 30.58 in 10.0 mi NE 3.5 mph - N/A   Clear
11:15 PM - - N/A% 30.58 in 10.0 mi NE 3.5 mph - N/A   Clear
11:35 PM - - N/A% 30.58 in 10.0 mi NE 4.6 mph - N/A   Clear
11:55 PM - - N/A% 30.57 in 10.0 mi ENE 5.8 mph - N/A   Clear